Brandon, Manitoba

11:43 PM CST on November 22, 2017 (GMT -0600)
Brandon

Weather History for CYBR - September, 2013

Change the Weather History Date:

Thursday, September 19, 2013

  Actual Average Record
Temperature  
Mean Temperature 54 °F -  
Max Temperature 57 °F 57 °F 84 °F (2004)
Min Temperature 50 °F 33 °F 30 °F (2007)
Degree Days  
Heating Degree Days 12    
Growing Degree Days 4 (Base 50)    
Moisture  
Dew Point 53 °F    
Average Humidity 93    
Maximum Humidity 100    
Minimum Humidity 82    
Precipitation  
Precipitation 0.08 in 0.04 in - ()
Sea Level Pressure  
Sea Level Pressure 29.80 in    
Wind  
Wind Speed 6 mph ()    
Max Wind Speed 17 mph    
Max Gust Speed 24 mph    
Visibility 11.1 miles    
Events Rain , Thunderstorm    
Averages and records for this station are not official NWS values.
T = Trace of Precipitation, MM = Missing Value Source: Averaged Metar Reports

Daily Weather History Graph

Daily Weather History Graph

Search for Another Location

Airport or City:

Trip Planner

Search our weather history database for the weather conditions in past years. The results will help you decide how hot, cold, wet, or windy it might be!

Date:

Astronomy

Sep. 19, 2013 Rise Set
Actual Time 7:22 AM CDT 7:43 PM CDT
Civil Twilight 6:49 AM CDT 8:15 PM CDT
Nautical Twilight 6:11 AM CDT 8:54 PM CDT
Astronomical Twilight 5:31 AM CDT 9:33 PM CDT
Moon 7:34 PM CDT (9/19) 7:38 AM CDT (9/19)
Length of Visible Light 13h 26m
Length of Day
12h 21m
Full, 100% of the Moon is Illuminated
Sep 19
Full
Sep 26
Last Quarter
Oct 4
New
Oct 11
First Quarter
Oct 18
Full

Hourly Weather History & Observations

Time (CDT) Temp. Dew Point Humidity Pressure Visibility Wind Dir Wind Speed Gust Speed Precip Events Conditions
12:00 AM 59.0 °F 59.0 °F 100% 29.65 in 10.0 mi Calm Calm - N/A   Light Drizzle
12:50 AM 59.0 °F 57.2 °F 94% 29.63 in 6.0 mi NNW 5.8 mph - N/A Rain , Thunderstorm Light Thunderstorms and Rain
1:00 AM 58 °F 58 °F 98% 29.65 in 7 mi NW 5.8 mph - - Rain , Thunderstorm Thunderstorms and Rain
1:00 AM 59.0 °F 57.2 °F 94% 29.65 in 8.0 mi NNW 5.8 mph - N/A Rain , Thunderstorm Light Thunderstorms and Rain
1:34 AM 59.0 °F 57.2 °F 94% 29.66 in 15.0 mi NE 4.6 mph - N/A Rain Light Rain Showers
2:00 AM 59.0 °F 57.2 °F 94% 29.68 in 12.0 mi WNW 3.5 mph - N/A Rain , Thunderstorm Light Thunderstorms and Rain
2:46 AM 57.2 °F 57.2 °F 100% 29.69 in 12.0 mi Calm Calm - N/A Rain Light Rain Showers
3:00 AM 57.2 °F 57.2 °F 100% 29.66 in 15.0 mi East 6.9 mph - N/A Rain Light Rain Showers
3:19 AM 57.2 °F 57.2 °F 100% 29.68 in 15.0 mi North 5.8 mph - N/A   Overcast
4:00 AM 57.2 °F 55.4 °F 94% 29.66 in 15.0 mi NE 6.9 mph - N/A   Overcast
4:49 AM 57.2 °F 55.4 °F 94% 29.70 in 12.0 mi WNW 8.1 mph - N/A Rain Light Rain
5:00 AM 57.2 °F 55.4 °F 94% 29.70 in 6.0 mi NW 4.6 mph - N/A Rain Light Rain
6:00 AM 55.4 °F 55.4 °F 100% 29.71 in 12.0 mi NNW 6.9 mph - N/A Rain Light Rain
6:20 AM 55.4 °F 55.4 °F 100% 29.71 in 15.0 mi North 4.6 mph - N/A   Overcast
7:00 AM 56 °F 54 °F 93% 29.73 in 15 mi NNW 3.5 mph - - Rain Light Rain
7:00 AM 55.4 °F 55.4 °F 100% 29.73 in 15.0 mi NNW 4.6 mph - N/A   Mostly Cloudy
8:00 AM 55.4 °F 55.4 °F 100% 29.74 in 15.0 mi NNW 3.5 mph - N/A   Mostly Cloudy
9:00 AM 57.2 °F 53.6 °F 88% 29.77 in 15.0 mi NW 2.3 mph - N/A   Overcast
10:00 AM 57.2 °F 53.6 °F 88% 29.79 in 15.0 mi NW 5.8 mph - N/A   Overcast
10:20 AM 57.2 °F 53.6 °F 88% 29.79 in 12.0 mi NW 6.9 mph - N/A Rain Light Rain
10:28 AM 55.4 °F 53.6 °F 94% 29.79 in 2.0 mi NNW 6.9 mph - N/A Rain Light Rain
11:00 AM 55.4 °F 53.6 °F 94% 29.80 in 2.0 mi NW 9.2 mph - N/A Rain Light Rain
11:26 AM 55.4 °F 53.6 °F 94% 29.81 in 4.0 mi NNW 16.1 mph - N/A Rain Light Rain
12:00 PM 55.4 °F 51.8 °F 88% 29.82 in 8.0 mi North 15.0 mph 23.0 mph N/A Rain Light Rain
12:45 PM 53.6 °F 51.8 °F 94% 29.85 in 2.5 mi NNW 12.7 mph 18.4 mph N/A Rain Light Rain
1:00 PM 54 °F 51 °F 87% 29.86 in 2 mi North 13.8 mph - - Rain Light Rain
1:00 PM 53.6 °F 51.8 °F 94% 29.86 in 2.5 mi North 13.8 mph 19.6 mph N/A Rain Light Rain
1:19 PM 53.6 °F 51.8 °F 94% 29.86 in 2.5 mi NNW 11.5 mph - N/A Rain Light Rain
2:00 PM 51.8 °F 51.8 °F 100% 29.88 in 1.5 mi North 8.1 mph - N/A Rain Light Rain
2:28 PM 53.6 °F 51.8 °F 94% 29.88 in 8.0 mi North 6.9 mph - N/A Rain Light Rain
3:00 PM 55.4 °F 51.8 °F 88% 29.89 in 15.0 mi NNW 5.8 mph - N/A Rain Light Rain
3:47 PM 57.2 °F 51.8 °F 82% 29.89 in 15.0 mi NNW 12.7 mph - N/A   Overcast
4:00 PM 57.2 °F 51.8 °F 82% 29.90 in 15.0 mi NNW 8.1 mph - N/A   Overcast
5:00 PM 57.2 °F 51.8 °F 82% 29.91 in 15.0 mi WNW 13.8 mph - N/A   Overcast
5:47 PM 55.4 °F 51.8 °F 88% 29.92 in 15.0 mi WNW 13.8 mph - N/A Rain Light Rain Showers
6:00 PM 53.6 °F 51.8 °F 94% 29.93 in 15.0 mi NW 17.3 mph - N/A Rain Light Rain Showers
7:00 PM 53 °F 51 °F 92% 29.94 in 15 mi WNW 15.0 mph - - Rain Light Rain Showers
7:00 PM 53.6 °F 51.8 °F 94% 29.94 in 15.0 mi WNW 16.1 mph - N/A Rain Light Rain Showers
7:20 PM 53.6 °F 50.0 °F 88% 29.94 in 15.0 mi NW 17.3 mph 24.2 mph N/A   Mostly Cloudy
8:00 PM 51.8 °F 50.0 °F 94% 29.94 in 15.0 mi NW 11.5 mph 17.3 mph N/A   Mostly Cloudy
9:00 PM 50.0 °F 48.2 °F 94% 29.95 in 15.0 mi NW 12.7 mph 18.4 mph N/A   Scattered Clouds
10:00 PM 50.0 °F 46.4 °F 87% 29.97 in 15.0 mi WNW 12.7 mph - N/A   Overcast
11:00 PM 50.0 °F 46.4 °F 87% 29.99 in 15.0 mi WNW 8.1 mph - N/A   Overcast